SB KEPS @ AMSAT $ORB11139.N 2Line Orbital Elements 11139.AMSAT
HR AMSAT ORBITAL ELEMENTS FOR AMATEUR SATELLITES IN NASA FORMAT FROM WA5QGD FORT WORTH,TX May 19, 2011 Send Subscribe/unsubscribe to KEPS at http://www.amsat.org/mailman/listinfo/keps BID: ORB11139.N
DECODE 2-LINE ELSETS WITH THE FOLLOWING KEY: 1 AAAAAU 00 0 0 BBBBB.BBBBBBBB .CCCCCCCC 00000-0 00000-0 0 DDDZ 2 AAAAA EEE.EEEE FFF.FFFF GGGGGGG HHH.HHHH III.IIII JJ.JJJJJJJJKKKKKZ KEY: A-CATALOGNUM B-EPOCHTIME C-DECAY D-ELSETNUM E-INCLINATION F-RAAN G-ECCENTRICITY H-ARGPERIGEE I-MNANOM J-MNMOTION K-ORBITNUM Z-CHECKSUM
TO ALL RADIO AMATEURS BT
AO-07 1 07530U 74089B 11139.50573461 -.00000027 00000-0 10000-3 0 815 2 07530 101.3916 147.1784 0011889 337.0273 023.0271 12.53582450670599 FO-29 1 24278U 96046B 11138.91845827 -.00000006 00000-0 32028-4 0 05921 2 24278 098.5424 286.9934 0350474 333.2427 025.0997 13.52960597728506 SO-33 1 25509U 98061B 11139.78942873 .00000276 00000-0 43634-4 0 9706 2 25509 031.4351 044.9197 0353433 353.2126 006.3838 14.28401415656215 RS-22 1 27939U 03042A 11139.64588566 .00000263 00000-0 59266-4 0 2729 2 27939 097.8506 355.0045 0014752 076.7573 283.5271 14.63581362408169 VO-52 1 28650U 05017B 11139.67126746 .00000205 00000-0 32129-4 0 7972 2 28650 097.6433 184.0743 0025585 255.2101 104.6290 14.82052099326523 SO-67 1 35870U 09049F 11139.72932697 .00001645 00000-0 77868-4 0 8529 2 35870 097.2836 184.0344 0003814 108.8640 358.0552 15.20701354 92611 HO-68 1 36122U 09072B 11139.81171783 -.00000045 00000-0 00000 0 0 3884 2 36122 100.4167 201.0489 0007109 290.1267 069.9089 13.16286242 68508 UO-11 1 14781U 84021B 11139.67526699 .00000432 00000-0 64138-4 0 5521 2 14781 098.0070 196.4714 0008088 227.0310 133.0209 14.79968063461572 AO-16 1 20439U 90005D 11138.88354568 .00000070 00000-0 41685-4 0 02003 2 20439 098.3821 089.4845 0009952 250.7510 109.2593 14.31919321113428 LO-19 1 20442U 90005G 11138.89776171 .00000138 00000-0 66955-4 0 01186 2 20442 098.3451 093.9640 0010976 242.0968 117.9100 14.32145477113607 AO-27 1 22825U 93061C 11138.88954340 .00000119 00000-0 63666-4 0 08387 2 22825 098.5303 083.9497 0008600 008.2759 351.8561 14.29346725920007 IO-26 1 22826U 93061D 11138.89435522 .00000063 00000-0 41432-4 0 05770 2 22826 098.5244 084.4389 0009262 002.1551 357.9669 14.29608419920126 GO-32 1 25397U 98043D 11139.50935147 .00000057 00000-0 43153-4 0 4828 2 25397 098.3231 133.6069 0001739 034.4427 325.6859 14.23208585667887 NO-44 1 26931U 01043C 11138.79888323 -.00000013 00000-0 27277-4 0 7544 2 26931 067.0530 059.2516 0007037 262.5985 097.4328 14.29657515502720 SO-50 1 27607U 02058C 11138.84696373 .00000193 00000-0 51716-4 0 04696 2 27607 064.5589 056.8310 0069627 327.7588 031.9260 14.71739249451776 CO-55 1 27844U 03031E 11139.51511685 .00000142 00000-0 86151-4 0 1128 2 27844 098.7057 148.6331 0009017 284.8470 075.1704 14.20807775408848 CO-57 1 27848U 03031J 11138.53844666 .00000137 00000-0 84061-4 0 616 2 27848 098.7122 146.8503 0008986 293.2539 066.7686 14.20587604408650 AO-51 1 28375U 04025K 11138.52587482 .00000111 00000-0 45866-4 0 09739 2 28375 098.0958 118.5356 0083526 159.3838 201.0747 14.40755705361791 CP3 1 31129U 07012N 11138.66486859 .00000193 00000-0 55069-4 0 08724 2 31129 097.8998 164.5819 0100905 272.8707 086.0936 14.52474695216558 CO-65 1 32785U 08021C 11138.70806376 .00000485 00000-0 67765-4 0 09944 2 32785 097.8511 203.1617 0013631 272.4604 087.5029 14.81983897165176 KKS-1 1 33493U 09002B 11139.72960722 .00001341 00000-0 17688-3 0 5946 2 33493 098.1202 267.9323 0020882 131.1505 229.1517 14.81666085125307 SOHLA-1 1 33496U 09002E 11138.90947730 .00000168 00000-0 36561-4 0 04253 2 33496 098.0778 249.0413 0005824 209.9676 150.1196 14.69612652124188 TISAT-1 1 36799U 10035E 11139.68431486 .00000852 00000-0 11817-3 0 8690 2 36799 098.1032 207.6494 0015663 014.5353 345.6315 14.80534596 46094 STUDSAT 1 36801U 10035G 11138.81502646 .00002059 00000-0 27530-3 0 01946 2 36801 098.1091 206.6280 0013841 005.9157 354.2215 14.80556498045951 RAX 1 37223U 0 11089.46431449 .00000660 00000-0 10054-3 0 01224 2 37223 071.9716 212.4675 0019443 068.5267 291.7923 14.77296529019265 OOREOS 1 37224U 10062C 11076.42207246 .00000868 00000-0 13086-3 0 01095 2 37224 071.9712 241.3960 0017800 096.5373 263.7815 14.76929834017329 FO-69 1 37227U 0 11139.33290920 .00000196 00000-0 35995-4 0 00301 2 37227 071.9683 102.8873 0017677 330.1340 029.8821 14.76581304005068 NANOSALD 1 37361U 0 11139.39378321 .00103336 00000-0 94748-2 0 01993 2 37361 071.9649 099.5789 0029103 244.0422 115.9005 14.93986826017812 FO-70 1 37380U 0 11139.34200668 .00000263 00000-0 45875-4 0 01665 2 37380 071.9715 102.9390 0018285 327.4639 032.5377 14.76348656026606 NOAA-10 1 16969U 86073A 11139.54128584 .00000057 00000-0 41178-4 0 5057 2 16969 098.6192 169.7147 0011813 313.3230 046.6967 14.27461013283563 NOAA-11 1 19531U 88089A 11139.41939656 .00000064 00000-0 55622-4 0 5079 2 19531 098.7518 227.4261 0010382 271.2972 088.6974 14.14916048168686 NOAA-12 1 21263U 91032A 11139.52334580 .00000082 00000-0 53449-4 0 28 2 21263 098.7503 157.4173 0011396 272.0245 087.9629 14.25711211 40323 MET-3/5 1 21655U 91056A 11138.81002557 .00000051 00000-0 10000-3 0 1130 2 21655 082.5574 071.5287 0012307 227.3584 132.6491 13.17026704949858 MET-2/21 1 22782U 93055A 11138.75276301 .00000018 00000-0 27634-5 0 00995 2 22782 082.5478 346.2350 0022265 177.8133 182.3130 13.83657652894484 OKEAN-4 1 23317U 94066A 11138.95020010 .00000357 00000-0 40772-4 0 05964 2 23317 082.5431 040.4396 0020771 211.8085 148.1877 14.83062230896210 NOAA-14 1 23455U 94089A 11139.44468000 -.00000019 00000-0 13279-4 0 4879 2 23455 098.8531 222.3654 0009749 006.9207 353.2098 14.13818552845018 NOAA-15 1 25338U 98030A 11139.37522567 .00000028 00000-0 30769-4 0 8193 2 25338 098.6513 125.9144 0010781 171.0312 189.1087 14.24913690676623 RESURS 1 25394U 98043A 11139.58452141 .00000018 00000-0 25407-4 0 7991 2 25394 098.3003 144.1835 0001560 000.4924 359.6251 14.24233442668230 FENGYUN1 1 25730U 99025A 11139.90103145 .00000006 00000-0 28625-4 0 3289 2 25730 098.8171 101.7212 0026022 031.4499 328.8207 14.08608964619089 OKEAN-0 1 25860U 99039A 11138.96753678 .00000251 00000-0 45819-4 0 03113 2 25860 097.8806 106.2211 0001922 075.9184 284.2236 14.73780306636351 NOAA-16 1 26536U 00055A 11139.32018692 -.00000110 00000-0 -34191-4 0 3011 2 26536 099.1402 169.2735 0011455 112.3802 247.8572 14.12617590549284 NOAA-17 1 27453U 02032A 11139.44350181 .00000123 00000-0 71265-4 0 2948 2 27453 098.3806 180.4697 0010925 230.5348 129.4875 14.24272343462565 NOAA-18 1 28654U 05018A 11139.46168584 -.00000045 00000-0 10899-6 0 7740 2 28654 098.9941 090.5419 0014171 182.3427 177.7671 14.11473892308878 NOAA-19 1 33591U 09005A 11139.45258566 .00000403 00000-0 24746-3 0 9657 2 33591 098.8257 080.0921 0014997 059.5012 300.7622 14.11167686117330 HUBBLE 1 20580U 90037B 11138.47037934 .00000926 00000-0 57427-4 0 7674 2 20580 028.4697 210.5697 0003782 166.1084 193.9499 15.01357299955183 ISS 1 25544U 98067A 11139.85304498 .00065323 00000-0 42558-3 0 3840 2 25544 051.6494 306.1741 0003396 292.0861 209.4882 15.75273061716444 CO-58 1 28895U 05043F 11138.66630044 .00000485 00000-0 11001-3 0 08775 2 28895 097.9699 016.1900 0016795 316.3398 043.6490 14.60096761295935 FALCON 1 30776U 07006E 11138.51510848 .00001582 00000-0 11341-3 0 01027 2 30776 035.4324 167.3906 0001109 231.7096 128.3522 15.04581626230575 MAST 1 31126U 07012K 11138.92099533 .00000203 00000-0 56363-4 0 01621 2 31126 097.8964 167.7967 0092949 261.6267 097.4389 14.53742299216830 CAPE1 1 31130U 07012P 11138.60434546 .00000102 00000-0 34234-4 0 1786 2 31130 097.9009 164.3093 0101298 273.5097 085.4520 14.52382693216347 COMPASS 1 32787U 08021E 11138.64636906 .00000755 00000-0 10069-3 0 09910 2 32787 097.8494 203.0096 0014418 273.6845 086.2722 14.82389739165185 AAUSAT2 1 32788U 08021F 11138.68125120 .00001323 00000-0 17077-3 0 09802 2 32788 097.8499 203.2585 0014132 274.4829 085.4802 14.82574964165209 DO-64 1 32789U 08021G 11138.76744715 .00001915 00000-0 24176-3 0 09994 2 32789 097.8589 204.2917 0014136 270.6767 089.2801 14.83017431165228 CO-66 1 32791U 08021J 11138.65691929 .00000972 00000-0 12865-3 0 09841 2 32791 097.8508 202.9721 0014383 270.8677 089.0853 14.82088583165136 RS-30 1 32953U 08025A 11139.65447805 .00000010 00000-0 00000 0 0 7438 2 32953 082.5021 180.4604 0020495 089.2596 271.0835 12.43012694135540 TACSAT-3 1 35001U 09028A 11139.87820983 .00015858 00000-0 29380-3 0 5941 2 35001 040.4552 344.5876 0023625 354.8662 005.1908 15.48271702112699 PHARMSAT 1 35002U 09028B 11138.93559011 .00012900 00000-0 24218-3 0 05589 2 35002 040.4729 347.9189 0025557 354.4257 005.6272 15.47963544112579 HAWKSAT1 1 35003U 09028C 11139.87161154 .00060204 00000-0 64756-3 0 6224 2 35003 040.4568 317.4912 0021750 020.4076 339.7599 15.62494516112991 CP6 1 35004U 09028D 11139.81375700 .00087864 00000-0 76004-3 0 6256 2 35004 040.4555 310.6484 0020424 021.4153 338.7510 15.67835434113054 METEOR-M 1 35865U 09049A 11139.72133798 .00000176 00000-0 10000-3 0 3806 2 35865 098.7081 195.2153 0003175 102.0906 258.0575 14.21838547 86540 RS-38 1 35869U 09049E 11139.72489344 .00000177 00000-0 10000-3 0 3745 2 35869 098.7046 195.2555 0005283 106.6289 253.5437 14.22011126 86552 /EX
participants (1)
-
Ray Hoad